Location: Unspecified
(42.9300°N, 71.1866°W)
Time: 12:47:05
(UTC-04:00)

Envisat - Visible Passes

Search period start: 29 July 2014 00:00
Search period end: 08 August 2014 00:00
Orbit: 765 x 767 km, 98.4° (Epoch: 29 July)

Date Brightness Start Highest point End Pass type
(mag) Time Alt. Az. Time Alt. Az. Time Alt. Az.
29 Jul 3.0 22:08:27 27° S 22:11:19 79° WSW 22:16:25 10° NNW visible
30 Jul 3.4 21:31:33 20° SE 21:34:52 49° ENE 21:39:45 10° N visible
30 Jul 5.0 23:11:46 15° SW 23:14:07 21° W 23:17:54 10° NW visible
31 Jul 4.3 20:54:38 10° ESE 20:58:36 24° ENE 21:02:35 10° NNE visible
31 Jul 3.8 22:34:51 26° SSW 22:37:20 44° W 22:42:12 10° NNW visible
01 Aug 2.9 21:57:57 28° SSE 22:00:45 84° ENE 22:05:51 10° NNW visible
01 Aug 5.5 23:38:45 10° WSW 23:40:23 11° W 23:42:03 10° WNW visible
02 Aug 3.7 21:21:03 18° SE 21:24:21 39° ENE 21:29:03 10° N visible
02 Aug 4.7 23:01:16 19° SW 23:03:27 26° W 23:07:40 10° NW visible
03 Aug 4.6 20:44:36 10° ESE 20:48:09 20° ENE 20:51:43 10° NNE visible
03 Aug 3.4 22:24:22 30° SSW 22:26:44 56° W 22:31:44 10° NNW visible
04 Aug 3.0 21:47:28 27° SSE 21:50:11 68° ENE 21:55:15 10° N visible
04 Aug 5.3 23:27:42 12° WSW 23:29:41 15° W 23:32:29 10° NW visible
05 Aug 3.9 21:10:35 16° ESE 21:13:51 32° ENE 21:18:19 10° N visible
05 Aug 4.3 22:50:48 24° SW 22:52:48 32° W 22:57:20 10° NNW visible
06 Aug 4.8 20:34:42 10° E 20:37:43 16° ENE 20:40:43 10° NNE visible
06 Aug 3.1 22:13:54 34° S 22:16:08 70° WSW 22:21:13 10° NNW visible
07 Aug 3.2 21:37:00 26° SE 21:39:39 54° ENE 21:44:36 10° N visible
07 Aug 5.0 23:17:14 16° WSW 23:18:59 19° W 23:22:30 10° NW visible
